| time (UTC) | temp F | wind direction | speed MPH | gust MPH | rain 1hr in | rain 24hr in | rain mn in | humidity % | barometer mb |
| 20260505234502 | 50 | 9 | 2.0 | 4.0 | 0.01 | 0.01 | 0.01 | 55 | 1004.1 |
| 20260505233058 | 50 | 5 | 4.0 | 12.0 | 0.01 | 0.01 | 0.01 | 56 | 1003.8 |
| 20260505231606 | 52 | 348 | 6.0 | 10.0 | 0.01 | 0.01 | 0.01 | 59 | 1003.8 |
| 20260505230053 | 53 | 319 | 9.0 | 15.0 | 0.01 | 0.01 | 0.01 | 61 | 1003.8 |
| 20260505224549 | 55 | 350 | 12.0 | 20.0 | 0.00 | 0.00 | 0.00 | 67 | 1003.4 |
| 20260505223042 | 57 | 334 | 13.0 | 18.0 | 0.00 | 0.00 | 0.00 | 69 | 1003.1 |
| 20260505221540 | 58 | 329 | 11.0 | 23.0 | 0.00 | 0.00 | 0.00 | 70 | 1002.7 |
| 20260505220038 | 59 | 324 | 12.0 | 22.0 | 0.00 | 0.00 | 0.00 | 71 | 1002.2 |
| 20260505214556 | 61 | 326 | 16.0 | 24.0 | 0.00 | 0.00 | 0.00 | 70 | 1001.8 |
| 20260505213030 | 62 | 313 | 11.0 | 22.0 | 0.00 | 0.00 | 0.00 | 70 | 1001.5 |
| 20260505211533 | 63 | 313 | 13.0 | 20.0 | 0.00 | 0.00 | 0.00 | 70 | 1001.3 |
| 20260505210028 | 64 | 315 | 14.0 | 19.0 | 0.00 | 0.00 | 0.00 | 69 | 1001.2 |
| 20260505204529 | 64 | 329 | 10.0 | 20.0 | 0.00 | 0.00 | 0.00 | 68 | 1001.1 |
| 20260505203027 | 64 | 310 | 7.0 | 16.0 | 0.00 | 0.00 | 0.00 | 70 | 1000.9 |
| 20260505201527 | 64 | 303 | 8.0 | 16.0 | 0.00 | 0.00 | 0.00 | 68 | 1001.0 |
| 20260505200030 | 63 | 310 | 10.0 | 18.0 | 0.00 | 0.00 | 0.00 | 69 | 1001.2 |
| 20260505194524 | 64 | 319 | 12.0 | 18.0 | 0.00 | 0.00 | 0.00 | 69 | 1001.1 |
| 20260505193022 | 65 | 297 | 12.0 | 19.0 | 0.00 | 0.00 | 0.00 | 69 | 1001.0 |
| 20260505191522 | 66 | 334 | 13.0 | 20.0 | 0.00 | 0.00 | 0.00 | 67 | 1000.9 |
| 20260505190026 | 67 | 326 | 12.0 | 24.0 | 0.00 | 0.00 | 0.00 | 65 | 1000.8 |
| 20260505184520 | 69 | 304 | 10.0 | 24.0 | 0.00 | 0.00 | 0.00 | 61 | 1000.3 |
| 20260505183026 | 71 | 309 | 13.0 | 22.0 | 0.00 | 0.00 | 0.00 | 62 | 1000.1 |
| 20260505181519 | 67 | 304 | 14.0 | 22.0 | 0.00 | 0.00 | 0.00 | 63 | 1000.4 |
| 20260505180016 | 68 | 303 | 15.0 | 31.0 | 0.00 | 0.00 | 0.00 | 60 | 1000.4 |
| 20260505174514 | 70 | 285 | 11.0 | 23.0 | 0.00 | 0.00 | 0.00 | 59 | 1000.1 |
| 20260505173012 | 70 | 258 | 12.0 | 25.0 | 0.00 | 0.00 | 0.00 | 59 | 999.9 |
| 20260505171511 | 68 | 301 | 14.0 | 35.0 | 0.00 | 0.00 | 0.00 | 61 | 999.8 |
| 20260505170013 | 66 | 309 | 13.0 | 31.0 | 0.00 | 0.00 | 0.00 | 64 | 1000.2 |
| 20260505164511 | 66 | 266 | 19.0 | 32.0 | 0.00 | 0.00 | 0.00 | 62 | 1000.4 |
| 20260505163015 | 67 | 276 | 18.0 | 39.0 | 0.00 | 0.00 | 0.00 | 60 | 1000.2 |
| 20260505161507 | 67 | 294 | 16.0 | 29.0 | 0.00 | 0.00 | 0.00 | 59 | 1000.0 |
| 20260505153004 | 69 | 281 | 19.0 | 29.0 | 0.00 | 0.00 | 0.00 | 59 | 999.1 |
| 20260505151502 | 69 | 223 | 17.0 | 31.0 | 0.00 | 0.00 | 0.00 | 60 | 999.1 |
| 20260505140113 | 67 | 249 | 12.0 | 23.0 | 0.00 | 0.00 | 0.00 | 63 | 999.2 |
| 20260505124547 | 65 | 239 | 13.0 | 23.0 | 0.00 | 0.00 | 0.00 | 65 | 999.0 |
| 20260505123050 | 65 | 242 | 14.0 | 25.0 | 0.00 | 0.00 | 0.00 | 65 | 998.8 |
| 20260505121542 | 63 | 244 | 11.0 | 25.0 | 0.00 | 0.00 | 0.00 | 66 | 999.0 |
| 20260505120048 | 63 | 219 | 13.0 | 25.0 | 0.00 | 0.00 | 0.00 | 66 | 999.0 |
| 20260505114545 | 63 | 252 | 18.0 | 25.0 | 0.00 | 0.00 | 0.00 | 66 | 999.0 |
| 20260505113038 | 63 | 245 | 13.0 | 27.0 | 0.00 | 0.00 | 0.00 | 67 | 998.8 |
| 20260505111536 | 62 | 240 | 14.0 | 22.0 | 0.00 | 0.00 | 0.00 | 67 | 998.6 |
| 20260505101544 | 61 | 222 | 10.0 | 29.0 | 0.00 | 0.00 | 0.00 | 68 | 998.6 |
| 20260505100032 | 61 | 231 | 13.0 | 25.0 | 0.00 | 0.00 | 0.00 | 68 | 998.4 |
| 20260505094537 | 61 | 241 | 12.0 | 21.0 | 0.00 | 0.00 | 0.00 | 67 | 998.5 |
| 20260505093031 | 61 | 250 | 7.0 | 19.0 | 0.00 | 0.00 | 0.00 | 67 | 998.4 |
| 20260505091531 | 60 | 243 | 11.0 | 26.0 | 0.00 | 0.00 | 0.00 | 68 | 998.3 |
| 20260505090027 | 60 | 277 | 7.0 | 20.0 | 0.00 | 0.00 | 0.00 | 68 | 998.4 |
| 20260505084526 | 60 | 281 | 14.0 | 25.0 | 0.00 | 0.00 | 0.00 | 67 | 998.9 |
| 20260505083025 | 59 | 244 | 12.0 | 22.0 | 0.00 | 0.00 | 0.00 | 67 | 998.8 |
| 20260505081522 | 58 | 246 | 7.0 | 16.0 | 0.00 | 0.00 | 0.00 | 66 | 998.7 |
| 20260505080020 | 57 | 238 | 8.0 | 14.0 | 0.00 | 0.00 | 0.00 | 65 | 998.8 |
| 20260505074517 | 57 | 214 | 7.0 | 11.0 | 0.00 | 0.00 | 0.00 | 64 | 998.8 |
| 20260505073013 | 57 | 277 | 2.0 | 9.0 | 0.00 | 0.00 | 0.00 | 65 | 999.1 |
| 20260505071526 | 58 | 283 | 5.0 | 11.0 | 0.00 | 0.00 | 0.00 | 66 | 999.2 |
| 20260505070009 | 59 | 253 | 7.0 | 14.0 | 0.00 | 0.00 | 0.00 | 67 | 999.2 |
| 20260505064508 | 59 | 242 | 9.0 | 16.0 | 0.00 | 0.00 | 0.00 | 69 | 999.3 |
| 20260505063004 | 60 | 254 | 7.0 | 18.0 | 0.00 | 0.00 | 0.00 | 69 | 999.4 |
| 20260505061500 | 60 | 256 | 8.0 | 23.0 | 0.00 | 0.00 | 0.00 | 69 | 999.4 |
| 20260505060100 | 61 | 263 | 7.0 | 19.0 | 0.00 | 0.00 | 0.00 | 68 | 999.4 |
| 20260505054557 | 61 | 235 | 12.0 | 27.0 | 0.00 | 0.00 | 0.00 | 68 | 999.4 |
| 20260505053055 | 61 | 249 | 12.0 | 24.0 | 0.00 | 0.00 | 0.00 | 68 | 999.6 |
| 20260505051604 | 60 | 249 | 10.0 | 21.0 | 0.00 | 0.00 | 0.00 | 69 | 999.7 |
| 20260505041543 | 61 | 203 | 8.0 | 20.0 | 0.00 | 0.00 | 0.00 | 69 | 1000.0 |
| 20260505040040 | 62 | 238 | 10.0 | 21.0 | 0.00 | 0.00 | 0.00 | 67 | 1000.0 |
| 20260505034537 | 63 | 220 | 8.0 | 19.0 | 0.00 | 0.00 | 0.00 | 61 | 1000.3 |
| 20260505033038 | 64 | 246 | 8.0 | 19.0 | 0.00 | 0.00 | 0.00 | 58 | 1000.1 |
| 20260505031536 | 64 | 254 | 9.0 | 15.0 | 0.00 | 0.00 | 0.00 | 56 | 1000.2 |
| 20260505030035 | 64 | 280 | 10.0 | 17.0 | 0.00 | 0.00 | 0.00 | 54 | 1000.2 |
| 20260505024535 | 64 | 238 | 6.0 | 16.0 | 0.00 | 0.00 | 0.00 | 52 | 999.9 |
| 20260505023034 | 64 | 252 | 6.0 | 16.0 | 0.00 | 0.00 | 0.00 | 51 | 1000.0 |
| 20260505021534 | 64 | 238 | 3.0 | 12.0 | 0.00 | 0.00 | 0.00 | 48 | 1000.0 |
| 20260505020033 | 64 | 241 | 5.0 | 16.0 | 0.00 | 0.00 | 0.00 | 48 | 1000.2 |
| 20260505014532 | 65 | 232 | 4.0 | 12.0 | 0.00 | 0.00 | 0.00 | 47 | 1000.3 |
| 20260505013043 | 65 | 236 | 4.0 | 12.0 | 0.00 | 0.00 | 0.00 | 45 | 1000.3 |
| 20260505011531 | 65 | 235 | 4.0 | 14.0 | 0.00 | 0.00 | 0.00 | 43 | 1000.2 |
| 20260505010031 | 66 | 240 | 7.0 | 14.0 | 0.00 | 0.00 | 0.00 | 41 | 1000.1 |
| 20260505004530 | 67 | 246 | 3.0 | 14.0 | 0.00 | 0.00 | 0.00 | 39 | 1000.1 |
| 20260505003033 | 67 | 247 | 7.0 | 16.0 | 0.00 | 0.00 | 0.00 | 37 | 1000.0 |
| 20260505001529 | 68 | 252 | 5.0 | 12.0 | 0.00 | 0.00 | 0.00 | 37 | 1000.1 |
| 20260505000031 | 69 | 260 | 5.0 | 12.0 | 0.00 | 0.00 | 0.00 | 35 | 1000.1 |